Location: NJAA Observatory
(40.6819°N, 74.8979°W)
Time: 06:16:36
(UTC-04:00)

Daily predictions for brighter satellites

Satellite Brightness Start Highest point End
(mag) Time Altitude Azimuth Time Altitude Azimuth Time Altitude Azimuth
Meteor 2-2 Rocket 4.4 20:05:46 10° S 20:11:37 76° E 20:17:36 10° NNE
FREGAT/IRIS 3.6 20:12:32 10° S 20:15:23 47° W 20:18:16 10° NNW
SL-16 R/B 3.3 20:17:26 10° SSE 20:21:41 22° E 20:25:57 10° NE
ATLAS 2AS CENTAUR R/B 3.0 20:14:26 10° NW 20:22:23 87° NE 20:29:39 10° SE
Cosmos 1408 3.6 20:20:43 10° NNE 20:23:59 29° ENE 20:27:14 10° SE
Cosmos 1470 Rocket 4.0 20:19:48 10° N 20:24:02 44° ENE 20:28:16 10° SSE
NOSS 0 Rocket 3.9 20:19:38 10° SSW 20:25:47 77° ESE 20:32:00 10° NNE
HJ-1C 4.5 20:27:01 10° S 20:30:14 47° W 20:33:31 10° NNW
Cosmos 220 Rocket 4.1 20:26:24 10° NNW 20:30:44 83° WSW 20:34:58 10° SSE
Cosmos 2154 Rocket 4.4 20:27:40 10° SSW 20:33:54 71° W 20:40:08 10° N
Cosmos 2098 Rocket 3.9 20:32:05 10° SSE 20:35:44 25° E 20:38:50 10° NE
Resurs 01 Rocket 1.7 20:36:03 10° SSE 20:40:24 58° ENE 20:44:47 10° N
ERS-2 2.3 20:37:47 10° S 20:41:26 77° WSW 20:45:08 10° NNW
YAOGAN 6 2.5 20:38:17 10° SSE 20:41:54 77° ENE 20:45:34 10° N
SJ-11-01 4.5 20:37:31 10° SSE 20:42:02 52° ENE 20:46:35 10° N
Cosmos 1151 Rocket 2.9 20:38:09 10° S 20:42:22 67° E 20:46:38 10° NNE
Spot 2 Rocket 3.8 20:37:43 10° SE 20:42:36 49° ENE 20:47:30 10° N
Cosmos 405 4.5 20:41:35 10° NNE 20:44:18 21° ENE 20:45:47 16° ESE
Cosmos 1980 3.8 20:40:36 10° SSW 20:46:17 83° WNW 20:52:00 10° NNE
Thor Agena Rocket 3.7 20:42:12 10° NNE 20:47:29 86° WNW 20:52:46 10° SSW
Meteor 2-3 Rocket 4.0 20:44:00 10° NNW 20:49:36 72° W 20:55:14 10° S
SL-8 R/B 4.3 20:45:12 10° WSW 20:49:55 59° NNW 20:54:41 10° ENE
Cosmos 1933 Rocket 3.5 20:47:59 10° N 20:52:21 75° E 20:56:42 10° SSE
NOSS 3-4 (A) 4.2 20:46:10 10° NNW 20:53:00 51° NE 20:58:48 17° ESE
NOSS 3-4 (C) 4.2 20:46:17 10° NNW 20:53:06 51° NE 20:58:53 17° ESE
Cosmos 1455 3.5 20:51:10 10° SSW 20:54:49 43° W 20:58:31 10° N
SJ-6B 4.5 20:51:30 10° SSW 20:55:10 34° W 20:58:48 10° NNW
Cosmos 2369 Rocket 4.4 20:54:47 10° NE 20:55:26 10° NE 20:56:06 10° NE
Cosmos 2297 4.3 20:50:15 10° N 20:55:36 41° ENE 20:59:24 18° ESE
Cosmos 2218 Rocket 4.0 20:55:34 10° S 21:01:52 71° E 21:08:15 10° NNE
Cosmos 1869 3.2 20:58:11 10° S 21:02:10 68° E 21:06:10 10° NNE
Cosmos 1441 Rocket 4.0 21:02:08 23° SE 21:03:21 28° E 21:06:36 10° NNE
Cosmos 2333 Rocket 3.8 20:58:57 10° SW 21:04:11 38° WNW 21:09:27 10° N
Resurs 1-3 3.9 21:01:57 10° S 21:06:18 70° WSW 21:10:42 10° NNW
Cosmos 2219 Rocket 4.2 21:01:32 10° WSW 21:06:31 31° WNW 21:11:32 10° N
Cosmos 2366 rocket 3.9 21:02:54 10° S 21:09:04 73° E 21:15:22 10° N
ATLAS CENTAUR R/B 4.1 21:07:33 10° W 21:10:16 19° NW 21:13:06 10° N
ERS-1 Rocket 4.1 21:09:54 21° E 21:11:51 26° ENE 21:15:59 10° N
Cosmos 2237 Rocket 3.0 21:07:22 10° SW 21:12:51 54° WNW 21:18:24 10° NNE
ATLAS 5 CENTAUR R/B 4.3 21:09:28 10° N 21:13:07 17° NE 21:16:58 10° ENE
Cosmos 1939 Rocket 3.8 21:09:33 10° S 21:13:17 45° W 21:17:05 10° NNW
Cosmos 1869 Rocket 4.1 21:11:18 10° N 21:15:24 39° ENE 21:16:54 29° ESE
SL-8 Rocket 4.2 21:10:09 10° SSW 21:16:26 75° W 21:22:44 10° N
USA 186 3.9 21:17:20 10° SW 21:18:49 16° W 21:20:21 10° NW
CZ-4B DEB 4.4 21:18:28 34° SSE 21:19:49 67° ENE 21:23:18 10° N
Cosmos 407 Rocket 3.4 21:16:14 10° NNW 21:21:23 72° ENE 21:24:14 27° SSE
Cosmos 2278 Rocket 3.1 21:18:15 10° NW 21:23:39 47° WSW 21:29:00 10° S
Cosmos 1339 Rocket 4.4 21:17:55 10° N 21:24:03 80° E 21:28:57 17° S
NOAA 11 4.3 21:21:28 14° S 21:26:18 77° WSW 21:31:50 10° NNW
Lacrosse 5 3.7 21:28:48 10° NNW 21:32:41 21° NNE 21:35:36 14° ENE
SPOT 5 3.9 21:35:32 24° ENE 21:35:54 24° ENE 21:39:28 10° NNE
Cosmos 1825 3.7 21:33:11 10° NNW 21:36:37 34° W 21:39:48 11° SSW
Cosmos 405 Rocket 2.6 21:35:29 40° S 21:36:45 72° E 21:40:41 10° NNE
ASTRO E2 4.4 21:34:40 10° SW 21:37:01 20° SSW 21:37:01 20° SSW
USA 81 3.9 21:34:19 10° N 21:39:36 80° E 21:42:17 30° S
H-2A R/B 2.0 21:43:19 41° SE 21:44:48 59° ENE 21:49:40 10° N
Cosmos 676 Rocket 3.9 21:40:01 10° NNW 21:45:16 73° ENE 21:46:57 43° SE
CZ-4C R/B 2.1 21:44:58 28° S 21:47:27 51° ESE 21:53:01 10° NE
Cosmos 1437 Rocket 4.2 21:45:56 10° NNE 21:48:33 26° NE 21:48:33 26° NE
MetOp-B 4.0 21:47:56 39° SSE 21:49:56 75° ENE 21:55:17 10° N
ARGOS 3.1 21:51:35 37° SSE 21:53:48 88° WSW 21:59:12 10° NNW
Meteor 2-10 Rocket 4.4 21:48:19 10° SSW 21:53:55 55° WNW 21:59:40 10° N
Cosmos 1862 3.5 21:52:10 10° NNW 21:56:11 69° W 21:56:57 53° SSW
Cosmos 1934 Rocket 4.3 21:56:41 40° ESE 21:57:23 41° E 22:03:01 10° NNE
Cosmos 1943 Rocket 3.7 21:53:25 10° N 21:57:28 20° NE 21:58:32 19° ENE
Cosmos 1452 Rocket 3.4 21:55:08 26° S 21:58:07 80° ESE 22:03:23 10° NNE
SL-16 R/B 3.0 21:59:54 10° SW 22:05:23 50° WNW 22:10:54 10° NNE
RESURS DK-1 4.3 22:03:27 10° N 22:06:05 19° NE 22:06:05 19° NE
Helios 1B rocket 3.9 22:02:46 10° NNE 22:04:56 26° NE 22:04:56 26° NE
Cosmos 1140 Rocket 3.4 22:02:12 10° NNW 22:07:23 85° WSW 22:08:24 58° S
Gblst 52 Del rocket 3.9 22:08:59 10° SW 22:14:33 83° SE 22:20:06 10° NE
Cosmos 1850 Rocket 4.2 22:11:24 10° N 22:16:28 53° ENE 22:16:35 52° ENE
Resurs 01 Rocket 4.4 22:15:20 10° WSW 22:17:14 12° W 22:19:09 10° WNW
Cosmos 921 Rocket 4.4 22:21:56 28° NE 22:21:56 28° NE 22:24:08 10° NNE
Cosmos 2344 3.6 22:13:06 10° SW 22:20:43 85° NW 22:29:05 10° NE
Landsat 7 4.2 22:21:41 51° NE 22:21:41 51° NE 22:25:54 10° N
Cosmos 1000 Rocket 4.4 22:16:15 10° N 22:22:29 83° W 22:24:15 50° S
Cosmos 1741 Rocket 4.1 22:20:52 10° NNW 22:26:10 63° ENE 22:26:10 63° ENE
Cosmos 1954 Rocket 4.4 22:22:01 10° NNW 22:27:06 54° WSW 22:27:53 49° SW
Cosmos 1821 Rocket 4.0 22:26:23 39° SSW 22:28:54 78° W 22:35:13 10° N
Cosmos 1603 3.5 22:31:54 67° SSW 22:32:42 90° WNW 22:38:21 10° NNE
Cosmos 1943 3.9 22:34:58 39° ENE 22:34:58 39° ENE 22:38:47 10° NNE
Helios 1A 3.7 22:37:13 52° WNW 22:37:13 52° WNW 22:40:43 10° NNW
Terra 2.5 22:40:06 45° NNE 22:40:06 45° NNE 22:43:46 10° N
Cosmos 2369 Rocket 2.4 22:35:07 10° NNW 22:40:37 58° ENE 22:40:37 58° ENE
CZ-2C R/B 4.3 22:41:20 10° NE 22:43:40 22° NE 22:43:40 22° NE
USA 267 3.3 22:40:50 10° NE 22:46:13 56° E 22:46:13 56° E
Cosmos 2123 Rocket 3.8 22:42:03 10° N 22:48:23 90° W 22:48:49 79° S
ERS-1 Rocket 4.1 22:49:53 35° WSW 22:50:27 36° W 22:55:04 10° NNW
ATLAS 5 CENTAUR R/B 2.5 22:52:51 10° NNW 22:58:49 67° NE 22:58:49 67° NE
Cosmos 1733 Rocket 4.4 22:57:24 10° NNW 23:00:32 38° NW 23:00:32 38° NW
Meteor 1-14 Rocket 4.4 22:56:50 10° NNW 23:02:01 67° WNW 23:02:01 67° WNW
GEOS 3 Rocket 4.1 23:02:13 10° NNE 23:07:30 60° NW 23:08:06 56° W
CZ-2C R/B 3.9 23:14:32 41° N 23:14:32 41° N 23:17:43 10° N
SPOT 5 4.4 23:14:46 28° WNW 23:14:46 28° WNW 23:17:49 10° NW
Lacrosse 5 2.8 23:11:14 10° NW 23:14:47 46° NW 23:14:47 46° NW
Cosmos 1605 Rocket 4.2 23:19:14 64° W 23:19:29 65° W 23:25:52 10° N
USA 234 4.3 23:18:28 31° ENE 23:20:31 39° NNE 23:26:28 10° NW
ATLAS 2A CENTAUR R/B 4.5 23:11:50 10° WSW 23:22:27 32° SW 23:22:27 32° SW
H-2A R/B 4.2 23:23:56 15° W 23:24:34 15° W 23:27:26 10° NW
CZ-4C R/B 4.0 23:31:44 10° W 23:36:17 28° NW 23:41:26 10° NNE
Cosmos 1943 Rocket 3.1 23:36:11 10° NNW 23:40:03 44° NW 23:40:03 44° NW
BREEZE-M DEB (TANK) 4.3 23:26:04 10° WNW 23:44:19 60° WSW 23:44:19 60° WSW
H-2A R/B 4.5 23:58:01 20° NNE 23:58:01 20° NNE 23:59:40 10° N
